Regional Weather Roundup
Issued by NWS

Home | Current Version | Previous Version | Graphics & Text | Print | Product List | Glossary On
Versions: 1 2 3 4 5 6 7 8 9 10 11 12 13 14 15 16 17 18 19 20 21 22 23 24 25 26 27 28 29 30 31 32 33 34 35 36 37 38 39 40 41 42 43 44 45 46 47
000
ASUS45 KCYS 132310
RWRWY

WYOMING REGIONAL WEATHER ROUNDUP
NATIONAL WEATHER SERVICE CHEYENNE WY
500 PM MDT SUN JUL 13 2014

NOTE:  "FAIR" INDICATES FEW OR NO CLOUDS BELOW 12,000 FEET
WITH NO SIGNIFICANT WEATHER AND/OR OBSTRUCTIONS TO VISIBILITY.

WYZ001-140000-
YELLOWSTONE NATIONAL PARK

CITY           SKY/WX    TMP DP  RH WIND       PRES   REMARKS
LK YELLOWSTONE   N/A     69  47  45 CALM      30.48F
W YELLOWSTONE  NOT AVBL

$$
WYZ002>013-054>058-071-098>099-140000-
NORTHERN WYOMING

CITY           SKY/WX    TMP DP  RH WIND       PRES   REMARKS
JACKSON        NOT AVBL
CODY           MOSUNNY   82  48  30 NE12      30.25F
GREYBULL       NOT AVBL
WORLAND        NOT AVBL
SHERIDAN       NOT AVBL
BUFFALO        MOSUNNY   83  41  22 N18G25    30.26F
GILLETTE       SUNNY     86  39  19 N22G28    30.19F
HULETT         FAIR      81  46  30 MISG      30.20
NEWCASTLE      FAIR      84  41  21 MISG      30.17

$$
WYZ014>020-022>026-101>103-140000-
CENTRAL WYOMING

CITY           SKY/WX    TMP DP  RH WIND       PRES   REMARKS
BIG PINEY      NOT AVBL
PINEDALE       PTCLDY    81  37  21 NW13G23   30.37F
DUBOIS         FAIR      79  41  25 S6        30.38F
LANDER         NOT AVBL
RIVERTON       NOT AVBL
CASPER         MOSUNNY   87  43  21 N5        30.23F
DOUGLAS        MOSUNNY   88  41  19 N14G25    30.21F

$$
WYZ021-027>030-104>119-140000-
SOUTHERN WYOMING

CITY           SKY/WX    TMP DP  RH WIND       PRES   REMARKS
EVANSTON       NOT AVBL
KEMMERER       PTCLDY   N/A N/A N/A W8        30.38S
ROCK SPRINGS   NOT AVBL
DIXON          FAIR      90  34  14 NW13G21   30.30F
RAWLINS        MOSUNNY   84  42  22 N15G21    30.34S
SARATOGA       FAIR      82  41  23 N9G16     30.35F
LARAMIE        MOSUNNY   73  50  44 NE9       30.37S
CHEYENNE       MOSUNNY   76  53  44 CALM      30.31F
TORRINGTON     SUNNY     84  53  34 CALM      30.15F

$$


USA.gov is the U.S. government's official web portal to all federal, state and local government web resources and services.